Weather in Proba

Russia / Saint-Petersburg and Leningrad Oblast     60°05′55″N   30°46′54″E
В апреле 2022 года жителям России запретили посещать сайт meteo.paraplan.net по решению Генеральной прокуратуры. Аудитория сайта уменьшилась в 10 раз. Владельцы сайта не видят смысла в поддержке погодного сервера в таких условиях. Сайт будет закрыт в октябре.
temp.,
°C
wind,
m/s
gust,
m/s
humid.,
%
clouds,
%
prec.,
mm/h
press.,
hPa
HPBL,
m
30 september, fri
fri3000:00+7se2796100 0.4 1006318
03:00+7se2796100 0.4 1006242
06:00+7sse2698100 0.1 1007209
09:00+7s269675 0.1 1007262
12:00+10ssw4785100 0.2 1008728
15:00+10ssw368394 0.9 1010753
18:00+8ssw389082 0.3 1011383
21:00+6ssw28967 0.3 1012208
1 october, sat
sat100:00+5ssw29955 0.0 1013207
03:00+5ssw28964 0.0 1013182
06:00+4sw27977 0.0 1014141
09:00+6ssw26905 0.0 1014185
12:00+10sw247410 0.0 1014617
15:00+12w126569 0.0 10131072
18:00+9nne117962 0.0 101210
21:00+7ne1187100 0.0 101210
2 october, sun
sun200:00+6nne129389 0.0 101114
03:00+5n22955 0.0 101020
06:00+5nne12975 0.0 101016
09:00+7n13885 0.0 1010112
12:00+11nne23614 0.0 1010814
15:00+11ne33595 0.0 1010813
18:00+7ne238197 0.0 101146
21:00+5ne1188100 0.0 101112
3 october, mon
mon300:00+5nne1190100 0.0 101115
03:00+5ene2492100 0.0 101178
06:00+5ne2592100 0.0 1010143
09:00+7ne3884100 0.0 1010589
12:00+8ne4875100 0.0 1009926
15:00+8ne5974100 0.1 10071077
18:00+7nne61279100 0.5 10041103
21:00+6n71591100 7.4 10001218
4 october, tue
tue400:00+6nne71493100 10.0 9971225
03:00+6n71393100 16.4 9931095
06:00+7nnw71395100 2.9 990732
09:00+7ene3797100 3.8 991561
12:00+6ne3494100 0.2 993500
15:00+5nnw3493100 0.2 996515
18:00+6wnw2691100 0.0 1000414
21:00+6wsw259492 0.0 1002219